Theta_e
291 290 290 289 289 289 289 289 289 289 289 289 290 290 290 290 290 290 290 290 290 291
289 288 287 287 287 287 287 289 288 287 287 288 288 288 287 288 288 288 288 288 288 288
287 287 286 286 285 285 286 286 286 286 286 286 286 286 286 286 286 285 286 287 285 285
285 285 285 284 284 284 284 285 285 285 285 285 284 285 284 284 284 284 284 284 284 284
284 284 283 283 283 283 282 283 283 283 283 283 283 283 283 283 283 282 282 282 282 282
282 282 281 281 281 281 281 281 281 281 281 281 281 281 283 283 283 282 282 282 281 281
280 280 280 280 280 280 280 279 279 280 279 280 280 282 283 283 282 281 281 281 281 280
280 279 279 279 279 279 279 278 279 279 279 279 280 282 282 282 281 280 279 280 280 280
279 279 278 278 278 277 277 277 278 278 278 277 279 284 284 283 280 279 279 278 279 279
277 277 277 277 277 276 276 276 276 276 277 277 277 282 283 283 279 279 278 278 278 278
276 276 276 275 275 275 275 275 275 275 276 276 277 281 282 282 279 278 278 278 278 278
274 274 274 274 273 274 274 274 274 275 275 275 275 279 281 280 278 278 277 278 278 277
273 273 272 272 272 273 273 274 274 274 274 274 274 277 280 280 278 276 277 277 277 278
271 271 272 271 271 271 271 271 270 271 272 273 274 274 278 280 277 276 276 275 274 275
Wind_Speed
8 5 4 5 4 4 4 4 5 5 5 6 6 6 5 3 4 5 5 6 5 4
6 7 5 6 5 4 4 5 6 6 6 7 6 6 6 4 6 5 5 5 5 4
6 6 5 6 7 6 5 7 7 8 8 9 8 8 7 6 5 6 5 5 7 5
6 6 6 6 6 6 6 7 7 7 7 7 7 8 7 7 7 8 8 7 8 8
6 6 6 6 6 5 6 5 6 6 6 7 8 7 7 8 8 9 10 10 10 10
6 5 6 6 6 6 7 7 7 8 8 8 8 6 8 8 9 9 9 9 9 10
6 5 5 5 6 7 7 8 7 7 7 7 7 6 8 7 6 6 7 7 7 8
4 5 5 6 6 6 6 6 6 7 7 7 5 6 9 7 8 9 9 6 8 7
5 5 5 5 5 5 6 6 5 5 5 7 6 17 19 15 7 8 8 8 9 9
4 4 6 6 6 5 5 4 5 6 7 8 7 17 18 18 6 7 7 9 10 10
5 5 4 4 4 4 3 5 6 6 7 7 7 16 17 18 7 6 8 9 10 11
3 3 3 4 5 4 5 5 5 6 6 7 7 16 18 15 8 9 10 10 11 12
2 2 3 4 4 3 4 6 5 6 4 6 7 14 18 16 8 9 8 9 11 17
2 3 3 3 3 4 3 4 4 4 4 4 6 9 17 19 9 9 9 9 9 9
Wind_Direction
58 67 64 57 54 40 30 21 356 1 10 9 8 2 1 351 339 346 340 342 328 312
58 61 62 52 47 35 10 3 4 5 5 6 5 4 358 1 355 355 340 329 334 317
65 57 49 47 38 22 5 7 4 5 6 4 3 4 2 358 352 356 343 343 337 330
51 41 39 40 25 17 3 6 8 2 358 0 358 358 2 357 0 352 345 346 342 331
52 39 37 31 18 12 8 5 0 1 8 8 2 359 8 3 358 355 351 347 344 340
51 44 36 25 14 13 7 9 11 15 14 5 358 358 3 4 360 357 349 342 337 331
37 32 25 20 20 17 12 14 7 8 5 0 351 357 1 355 352 344 345 333 330 326
42 36 27 23 17 12 15 11 0 2 2 357 357 353 357 354 355 346 338 323 323 319
36 35 28 19 12 14 12 4 357 354 350 349 359 359 1 0 349 336 334 332 332 327
34 37 27 14 12 4 353 340 352 355 354 354 349 0 357 351 342 326 320 332 327 329
31 28 16 9 359 350 343 358 357 345 346 350 354 352 351 353 334 330 335 331 330 332
21 11 359 8 350 354 355 347 351 352 348 341 331 348 353 356 345 340 336 338 338 332
358 7 12 355 345 359 352 339 338 332 330 330 328 346 353 354 347 330 330 338 332 333
14 357 11 4 355 336 330 329 313 313 311 308 338 340 351 349 342 332 337 329 328 327